Regional Weather Roundup
Issued by NWS Goodland, KS

Home | Current Version | Previous Version | Graphics & Text | Print | Product List | Glossary On
Versions: 1 2 3 4 5 6 7 8 9 10 11 12 13 14 15 16 17 18 19 20 21 22 23 24 25 26 27 28 29 30 31 32 33 34 35 36 37 38 39 40 41 42 43 44 45 46 47 48 49 50
000
ASUS43 KGLD 011259
RWRGLD

GOODLAND FORECAST AREA HOURLY WEATHER ROUNDUP
NATIONAL WEATHER SERVICE GOODLAND KS
700 AM MDT SAT OCT 01 2016

...OFFICIAL OBSERVATIONS...

CITY           SKY/WX    TMP DP  RH WIND       PRES   REMARKS
GOODLAND KS    CLOUDY    46  42  86 CALM      30.12R
HILL CITY KS   CLEAR     44  42  93 CALM      30.14R
IMPERIAL NEB   CLEAR     46  43  89 SE6       30.11S
MCCOOK NEB     CLOUDY    48  45  89 CALM      30.13R
AKRON CO       CLEAR     47  43  86 S7        30.12S
BURLINGTON CO  CLEAR     48  43  82 CALM      30.13R
LIMON CO       CLOUDY    45  40  82 W6        30.16S
$$

...UNOFFICIAL OBSERVATIONS...

CITY           SKY/WX    TMP DP  RH WIND       PRES   REMARKS
COLBY KS       CLEAR     46  45  93 E3        30.13S
LENORA KS        N/A     48  32  54 MISG        N/A
NORTON KS      CLEAR     45  39  81 E3        30.12
SHARON SPRINGS   N/A     47  44  89 CALM        N/A
KIT CARSON CO    N/A     47  43  85 CALM        N/A
$$




USA.gov is the U.S. government's official web portal to all federal, state and local government web resources and services.